DW2959 Murcia ES current weather conditions

sailwx.info

Last reported at 2014-Dec-19 07:43 UTC.
Time now 2014-Dec-19 08:42 UTC

Location: N 38°00' W 001°02'.
View on Google Maps.

See reports from other nearby stations

  
Tides and Currents Weather Stations Pressure Air Temp Water Temp Dewpoint Dewpoint Depression Visibility Wind Speed Wind Dir Waves Ship Positions
date/time (UTC)wind fromknots sea level pressurealtimeterstation pressurevisibilityair tempwater tempwave heightnotes
2014-Dec-19 07:43
2014-Dec-19 07:28
2014-Dec-19 07:13
2014-Dec-19 06:58
2014-Dec-19 06:43
2014-Dec-19 06:28
2014-Dec-19 06:12
2014-Dec-19 05:57
2014-Dec-19 05:42
2014-Dec-19 05:27
2014-Dec-19 05:12
2014-Dec-19 04:57
2014-Dec-19 04:42
2014-Dec-19 04:27
2014-Dec-19 04:12
2014-Dec-19 03:57
2014-Dec-19 03:42
2014-Dec-19 03:27
2014-Dec-19 03:12
2014-Dec-19 02:57
2014-Dec-19 02:41
2014-Dec-19 02:26
2014-Dec-19 02:11
2014-Dec-19 01:56
2014-Dec-19 01:41
2014-Dec-19 01:26
2014-Dec-19 01:11
2014-Dec-19 00:56 256 2 10.6
2014-Dec-19 00:41 249 2 10.0
2014-Dec-19 00:26 216 3 9.4
2014-Dec-19 00:11 100 0 9.4
2014-Dec-18 23:56 100 9.4
2014-Dec-18 23:41 100 9.4
2014-Dec-18 23:26 098 9.4
2014-Dec-18 23:11 098 8.9
2014-Dec-18 22:56 098 0 8.9
2014-Dec-18 22:42 097 8.9
2014-Dec-18 22:26 097 8.9
2014-Dec-18 22:11 097 9.4
2014-Dec-18 21:56 097 9.4
2014-Dec-18 21:41 097 0 9.4
2014-Dec-18 21:26 097 0 9.4
2014-Dec-18 21:10 097 10.0
2014-Dec-18 20:55 097 10.6
2014-Dec-18 20:40 097 10.6
2014-Dec-18 20:25 097 11.1
2014-Dec-18 20:10 097 11.1
2014-Dec-18 19:55 097 11.7
2014-Dec-18 19:40 097 11.7
2014-Dec-18 19:25 097 11.1
2014-Dec-18 19:10 097 0 11.7
2014-Dec-18 18:55 098 12.8
2014-Dec-18 18:40 098 12.8
2014-Dec-18 18:25 098 12.8
2014-Dec-18 18:10 098 12.8
2014-Dec-18 17:55 098 13.3
2014-Dec-18 17:40 098 0 14.4
2014-Dec-18 17:25 098 15.0
2014-Dec-18 17:10 098 1 15.6
2014-Dec-18 16:55 235 16.1
2014-Dec-18 16:40 235 16.7
2014-Dec-18 16:25 235 17.2
2014-Dec-18 16:10 235 17.8
2014-Dec-18 15:55 235 0 18.9
2014-Dec-18 15:40 235 1 20.0
2014-Dec-18 15:25 235 0 20.0
2014-Dec-18 15:10 234 0 20.0
2014-Dec-18 14:55 234 20.0
2014-Dec-18 14:40 234 20.0
2014-Dec-18 14:25 234 1 20.0
2014-Dec-18 14:10 242 20.0
2014-Dec-18 13:55 242 1 20.0
2014-Dec-18 13:40 246 0 19.4
2014-Dec-18 13:25 246 1 18.9
2014-Dec-18 13:10 242 3 18.9
2014-Dec-18 12:55 302 3 18.3
2014-Dec-18 12:40 259 4 18.3
2014-Dec-18 12:25 265 3 18.3
2014-Dec-18 12:10 229 3 18.3
2014-Dec-18 11:55 242 3 17.8
2014-Dec-18 11:40 217 4 17.8
2014-Dec-18 11:24 235 4 17.2
2014-Dec-18 11:09 242 4 17.2
2014-Dec-18 10:54 233 3 16.7
2014-Dec-18 10:39 265 4 16.7
2014-Dec-18 10:24 268 4 16.1
2014-Dec-18 10:09 273 4 16.1
2014-Dec-18 09:54 221 4 15.6
2014-Dec-18 09:39 232 4 15.0
2014-Dec-18 09:24 233 4 15.0
2014-Dec-18 09:09 243 5 14.4
2014-Dec-18 08:55 226 3 13.9
2014-Dec-18 08:39 242 3 13.9
2014-Dec-18 08:24 224 5 13.3
2014-Dec-18 08:09 215 5 12.8
2014-Dec-18 07:54 259 5 12.2
2014-Dec-18 07:39
2014-Dec-18 07:24
2014-Dec-18 07:09
2014-Dec-18 06:54
2014-Dec-18 05:38
2014-Dec-18 05:23
2014-Dec-18 05:08
2014-Dec-18 04:53
2014-Dec-18 04:38
2014-Dec-18 04:23
2014-Dec-18 04:08
2014-Dec-18 03:53
2014-Dec-18 03:38
2014-Dec-18 03:22
2014-Dec-18 03:07
2014-Dec-18 02:52
2014-Dec-18 02:37
2014-Dec-18 02:22
2014-Dec-18 02:07
2014-Dec-18 01:52
2014-Dec-18 01:37
2014-Dec-18 01:22
2014-Dec-18 01:07
2014-Dec-18 00:52 269 5 12.8
2014-Dec-18 00:37 257 3 12.8
2014-Dec-18 00:22 262 4 12.8
2014-Dec-18 00:07 265 4 13.9
2014-Dec-17 23:52 213 4 13.9
2014-Dec-17 23:37 238 3 13.9
2014-Dec-17 23:21 250 4 13.9
2014-Dec-17 23:06 252 3 13.9
2014-Dec-17 22:51 233 4 13.9
2014-Dec-17 22:36 246 4 13.9
2014-Dec-17 22:21 248 4 13.9
2014-Dec-17 22:06 244 3 13.9
2014-Dec-17 21:51 242 3 13.9
2014-Dec-17 21:36 267 4 14.4
2014-Dec-17 21:21 259 3 13.9
2014-Dec-17 21:06 236 4 13.9
2014-Dec-17 20:51 233 4 13.9
2014-Dec-17 20:36 261 3 13.9
2014-Dec-17 20:21 236 4 13.9
2014-Dec-17 20:06 229 3 13.9
2014-Dec-17 19:36 220 3 13.9
2014-Dec-17 19:21 240 4 13.9
2014-Dec-17 19:06 238 3 13.9
2014-Dec-17 18:51 244 2 13.9
2014-Dec-17 18:36 225 4 14.4
2014-Dec-17 18:21 219 3 13.9
2014-Dec-17 18:06 232 2 13.9
2014-Dec-17 17:51 231 2 14.4
2014-Dec-17 17:36 229 2 14.4
2014-Dec-17 17:21 236 2 14.4
2014-Dec-17 17:06 327 0 14.4
2014-Dec-17 16:51 327 15.6
2014-Dec-17 16:36 327 16.7
2014-Dec-17 16:21 327 17.2
2014-Dec-17 16:06 327 0 17.8
2014-Dec-17 15:51 328 17.8
2014-Dec-17 15:36 328 17.8
2014-Dec-17 15:21 328 0 17.2
2014-Dec-17 15:06 328 1 17.2
2014-Dec-17 14:51 328 1 17.2
2014-Dec-17 14:36 329 0 17.2
2014-Dec-17 14:21 329 17.2
2014-Dec-17 14:06 329 1 16.7
2014-Dec-17 13:51 328 1 16.7
2014-Dec-17 13:36 328 2 16.7
2014-Dec-17 13:21 360 3 16.1
2014-Dec-17 13:06 351 5 16.7
2014-Dec-17 12:51 244 3 16.1
2014-Dec-17 12:42 214 3 16.1
2014-Dec-17 12:21 295 4 16.1
2014-Dec-17 12:06 311 5 15.6
2014-Dec-17 11:51 265 5 15.0
2014-Dec-17 11:36 284 6 15.0
2014-Dec-17 11:20 269 6 15.0
2014-Dec-17 11:05 282 6 14.4
2014-Dec-17 10:50 264 5 14.4
2014-Dec-17 10:35 288 8 13.9
2014-Dec-17 10:20 252 8 13.3
2014-Dec-17 10:05 272 6 13.3
2014-Dec-17 09:50 263 6 13.3
2014-Dec-17 09:37 225 6 12.8
2014-Dec-17 09:20 236 5 12.8
2014-Dec-17 09:07 238 4 12.2
2014-Dec-17 08:50 217 5 11.7
2014-Dec-17 08:35 262 5 11.1
2014-Dec-17 08:19 238 5 11.1
2014-Dec-17 08:04 234 6 11.1